Terminal Aerodrome Forecast
Issued by NWS Salt Lake City, UT

Home | Current Version | Previous Version | Text Only | Print | Product List | Glossary On
Versions: 1 2 3 4 5 6 7 8 9 10 11 12 13 14 15 16 17 18 19 20 21 22 23 24 25 26
000
FTUS45 KSLC 260901 AAA
TAFSLC
TAF AMD
KSLC 260901Z 2609/2712 15009KT P6SM SCT130
     FM261900 33011KT P6SM FEW110 SCT130
     FM270400 15007KT P6SM SKC=

USA.gov is the U.S. government's official web portal to all federal, state and local government web resources and services.